Regional Weather Roundup
Issued by NWS Wakefield, VA

Home | Current Version | Previous Version | Text Only | Print | Product List | Glossary On
Versions: 1 2 3 4 5 6 7 8 9 10 11 12 13 14 15 16 17 18 19 20 21 22 23 24 25 26 27 28
000
ASUS41 KAKQ 191415
RWRAKQ

REGIONAL WEATHER ROUNDUP
NATIONAL WEATHER SERVICE WAKEFIELD VA
900 AM EST MON FEB 19 2018

Note: "fair" indicates few or no clouds below 12,000 feet with no
significant weather and/or obstructions to visibility. * = Denotes
station may not report precipitation (e.g., rain,snow,etc.),
thunder or fog.

VAZ042-051-052>054-056-191500-
NORTHERN VIRGINIA

CITY           SKY/WX    TMP DP  RH WIND       PRES   REMARKS
WASH NATIONAL  CLOUDY    42  39  89 S8        30.50R
DULLES         CLOUDY    39  38  96 S7        30.47R
FORT BELVOIR   CLOUDY    41  38  90 S6        30.49R
QUANTICO       CLOUDY    41  39  93 SW8       30.50S
FREDERICKSBRG* CLOUDY    40  40 100 S5        30.48F
STAFFORD*      CLOUDY    40  40 100 S5        30.52S
WARRENTON      CLOUDY    41  36  84 S3        30.46S
CULPEPER*      CLOUDY    41  37  84 S7        30.47F
MANASSAS*      CLOUDY    40  37  89 S6        30.48R
LEESBURG*      CLOUDY    37  37 100 S9        30.45F
WINCHESTER     CLOUDY    39  36  87 S10       30.38F
FRONT ROYAL*   PTSUNNY   41  39  93 S3        30.37F
LURAY*         CLOUDY    43  41  93 SW13      30.38S
$$

VAZ048-049-060>072-079>083-191500-
CENTRAL AND SOUTH CENTRAL VIRGINIA

CITY           SKY/WX    TMP DP  RH WIND       PRES   REMARKS
RICHMOND       DRIZZLE   40  39  97 SE3       30.48F FOG
CHESTERFIELD*  LGT RAIN  40  39  97 S6        30.48F FOG
PETERSBURG*    LGT RAIN  39  37  93 CALM      30.50F
HANOVER        CLOUDY    40  39  97 S5        30.50S FOG
TAPPAHANNOCK*  DRIZZLE   42  41  97 SE6       30.49F
QUINTON*       CLOUDY    40  40 100 MISG      30.49S FOG
CHARLOTTSVILLE CLOUDY    42  39  89 S7        30.45F
GORDONSVILLE*  CLOUDY    39  39  98 S7        30.46F
ORANGE*        CLOUDY    39  36  87 CALM      30.46F
LOUISA*        CLOUDY    38  37  95 S3        30.51F
BUMPASS*       CLOUDY    38  37  95 CALM      30.47F
FARMVILLE*     CLOUDY   N/A N/A N/A CALM      30.48S HAZE
CREWE*         CLOUDY    39  39 100 CALM      30.48S
FORT PICKETT*  CLOUDY    39  39 100 MISG      30.47F
CHASE CITY*    CLOUDY    40  40 100 CALM      30.47F
CLARKSVILLE*   CLOUDY    41  41 100 CALM      30.48S
SOUTH HILL*    CLOUDY    39  39 100 N3        30.53F
LAWRENCEVILLE* CLOUDY    40  40  97 CALM      30.48F
EMPORIA*       RAIN      41  41 100 N3        30.50F
$$

VAZ088>098-191500-
SOUTHEAST VIRGINIA

CITY           SKY/WX    TMP DP  RH WIND       PRES   REMARKS
NORFOLK        LGT RAIN  48  46  93 SE6       30.50S
VIRGINIA BEACH LGT RAIN  47  44  90 E7        30.50S FOG
NORFOLK NAVAL  LGT RAIN  48  45  89 SE8       30.51S FOG
WEST POINT*    FAIR      42  40  95 CALM      30.51F
SALUDA*        CLOUDY    42  42 100 SE5       30.50F
NEWPORT NEWS   LGT RAIN  45  43  93 SE3       30.50F FOG
LANGLEY AFB    LGT RAIN  46  46  99 SE5       30.50F FOG
FORT EUSTIS    LGT RAIN  45  43  94 SE5       30.47F
WILLIAMSBURG*  PTSUNNY   46  43  87 CALM      30.50F
HR EXEC AP*    LGT RAIN  46  45  96 E5        30.51S FOG
FRANKLIN*      LGT RAIN  44  44  98 E6        30.50F
US460-WAKEFLD  LGT RAIN  43  43 100 CALM      30.49F FOG
$$

VAZ020-022-025-037-045-191500-
WEST CENTRAL AND SOUTHWEST VIRGINIA

CITY           SKY/WX    TMP DP  RH WIND       PRES   REMARKS
STAUNTON*      DRIZZLE   41  38  89 S6        30.42S
WAYNESBORO*    CLOUDY    41  40  95 S3        30.41R
HOT SPRINGS VA CLOUDY    46  46 100 SW12G21   30.37R
LYNCHBURG      CLOUDY    40  38  93 SE5       30.47S
DANVILLE       CLOUDY    41  41 100 NE3       30.48R
SOUTH BOSTON*  CLOUDY    41  40  95 CALM      30.49R
MARTINSVILLE   CLOUDY    42  41  97 E3        30.48S FOG
ROANOKE        CLOUDY    40  39  97 SE5       30.47R
BLACKSBURG     CLOUDY    40  40 100 E5        30.44S FOG
DUBLIN*        CLOUDY    43  42  98 CALM      30.42S FOG
MARION*        CLOUDY    45  20  38 E6        30.41R
HILLSVILLE*    FOG       43  42  96 S8        30.38S VSB 1/2
RICHLANDS*     CLOUDY    55  49  79 SE5       30.32S
WISE*          CLOUDY    54  54 100 S13       30.31S
ABINGDON*      PTSUNNY   53  49  87 E6        30.34R
$$

MDZ021>025-VAZ099-100-191500-
SOUTHERN MARYLAND AND THE DELMARVA PENINSULA

CITY           SKY/WX    TMP DP  RH WIND       PRES   REMARKS
PATUXENT RIVER CLOUDY    42  41  96 S6        30.48F
BAY BRIDGE APT PTSUNNY   43  37  81 S5        30.49F
LEONARDTOWN    CLOUDY    41  37  87 S3        30.50S
DOVER          PTSUNNY   45  39  81 S6        30.50S
GEORGETOWN     FAIR      43  38  82 S5        30.50F
EASTON         PTSUNNY   43  37  81 S5        30.52S
CAMBRIDGE      CLOUDY    43  39  87 CALM      30.49F
SALISBURY      PTSUNNY   40  39  97 E6        30.49F
OCEAN CITY     PTSUNNY   44  43  96 CALM      30.52R
WALLOPS ISLAND PTSUNNY   48  44  86 SE8       30.51S
ACCOMACK*      LGT RAIN  47  44  90 SE8       30.50S
$$

NCZ012>017-030>032-191500-
NORTH CENTRAL AND EASTERN NORTH CAROLINA

CITY           SKY/WX    TMP DP  RH WIND       PRES   REMARKS
ROANOKE RAPIDS LGT RAIN  43  43 100 CALM      30.47F
RALEIGH        DRIZZLE   41  41 100 NE5       30.48S FOG
ELIZABETH CITY LGT RAIN  49  49 100 NE9       30.50R FOG
AHOSKIE*       RAIN      43  43 100 NE3       30.49R
EDENTON*       DRIZZLE   51  49  94 E8        30.48S
CURRITUCK*     RAIN      48  46  92 E5        30.51S
KILL DEVIL HLS CLOUDY   N/A N/A N/A CALM      30.47R
MANTEO         CLOUDY    52  48  86 SE7       30.49R
CAPE HATTERAS  CLOUDY    60  55  83 SE13      30.46S
TARBORO*       NOT AVBL
GOLDSBORO      CLOUDY    46  43  90 N3        30.44S
WASHINGTON     DRIZZLE   47  45  93 CALM      30.47R
GREENVILLE     DRIZZLE   45  45 100 E3        30.46S
NEW BERN       CLOUDY    52  48  86 NE3       30.47R
WILMINGTON     CLOUDY    56  52  86 N7        30.43F
$$

VAZ048-191500-
ELSEWHERE

CITY           SKY/WX    TMP DP  RH WIND       PRES   REMARKS
HARRISBURG PA  CLOUDY    39  33  79 SE7       30.44F
BALTIMORE      CLOUDY    38  36  92 SE3       30.47F
ANNAPOLIS      CLOUDY    42  40  92 SE7       30.48F
ANDREWS AFB    CLOUDY    39  37  91 S6        30.46F
PHILADELPHIA   PTSUNNY   40  34  79 S3        30.51F
HENDERSON NC   DRIZZLE   38  37  97 CALM      30.49S
GREENSBORO     LGT RAIN  45  45 100 E6        30.43F FOG
ROCKY MOUNT    LGT RAIN  44  43  96 CALM      30.48R FOG
$$

VAZ100-191500-
MARINE

STATION/POSITION TIME  TEMP    WIND        PRES    WAVE   SWELL
                       AIR SEA DIR/SP/G            HT/PER HT/PER
                 (UTC) (F)     (DEG/KT/KT) (MB)    (FT/S) (FT/S)
BRANDYWINE LGT   1342   42     160/ 10/ 10 1033.2F
CAPE MAY NJ      1348   44 40  140/  7/  9 1032.6F
LEWES DE         1342   43 41  170/  5/  7 1032.8F
15NM E FENWICK I 1350   45 42  140/  4/  6 1033.5F   2/ 9   2/ 9
OCEAN-CITY-INLET 1342   42 40  200/  2/  3 1033.8R
WACHAPREAGUE VA  1342   46 45  170/  3/  4 1033.1R
THOMAS POINT MD  1400   39 38  150/  6/  7   N/A
GOOSES REEF MD   1400   40 38  160/  4/  6 1032.8    1
COVE POINT MD    1342   40     170/ 10/ 11 1032.7F
SOLOMONS ISLAND  1342   41 40  160/  3/  4 1032.0F
BISHOPS HEAD MD  1342   43 42  170/  8/ 10 1032.9F
POTOMAC MD       1400   41 41   30/  6/  8 1031.8    0
CAMBRIDGE MD     1342   41 43              1033.1F
LEWISETTA VA     1342   42 43  200/  7/ 10 1032.3F
RAPPAHANNOCK LGT 1342          170/  5/  5 1033.7R
STINGRAY PT      1400   42 43  200/  6/  8 1033.2    0
YORK RVR RNG VA  1342   44     170/  6/  7 1033.6F
YORKTOWN VA      1342   45 44  150/  4/  5 1032.7F
DOMINION TERM VA 1342   45      50/  2/  6 1033.2S
KIPTOPEKE VA     1342      43  150/  8/ 11   N/A
CAPE HENRY VA    1342   45     130/  8/  9   N/A
S CRANEY ISL VA  1342   46     130/  6/  8 1032.7F
CAPE HENRY BUOY  1400      43                N/A     2/ 4
1ST LANDING BUOY 1400      41                N/A     1/ 3
CAPE CHARLES BUO 1351      43                N/A     2/10
64NM E OF VA BCH 1350   52 50   80/  6/  8 1033.5R   3/ 9   2/ 9
DUCK PIER NC     1342   47 45   90/  3/  5 1031.9S
44100 DUCK FRF   1345      44                N/A     3/ 5
44056 DUCK FRF   1400      44                N/A     3/ 5
OREGON INLET NC  1342   50 47  100/  5/  7 1031.8F
HATTERAS NC      1342   62 56  140/ 10/ 14 1031.1F
DIAMOND SHLS NC  1400   66 72  130/ 17/ 21 1031.9
CAPE LOOKOUT NC  1400          130/ 11/ 12 1031.0R
$$




USA.gov is the U.S. government's official web portal to all federal, state and local government web resources and services.